Caldwell, NJ

12:03 AM EDT on September 20, 2019 (GMT -0400)
Essex County

Weather History for KCDW - July, 2019

Change the Weather History Date:

Wednesday, July 10, 2019

  Actual Average Record
Temperature  
Mean Temperature 78 °F -  
Max Temperature 91 °F 87 °F 97 °F (1993)
Min Temperature 66 °F 64 °F 49 °F (1953)
Cooling Degree Days 14    
Growing Degree Days 28 (Base 50)    
Moisture  
Dew Point 66 °F    
Average Humidity 65    
Maximum Humidity 93    
Minimum Humidity 41    
Precipitation  
Precipitation 0.00 in - - ()
Sea Level Pressure  
Sea Level Pressure 30.03 in    
Wind  
Wind Speed 1 mph (WSW)    
Max Wind Speed 5 mph    
Max Gust Speed -    
Visibility 10 miles    
Events      
Averages and records for this station are not official NWS values.
T = Trace of Precipitation, MM = Missing Value Source: NWS Daily Summary

Daily Weather History Graph

Daily Weather History Graph

Search for Another Location

Airport or City:

Astronomy

Jul. 10, 2019 Rise Set
Actual Time 5:34 AM EDT 8:30 PM EDT
Civil Twilight 5:01 AM EDT 9:03 PM EDT
Nautical Twilight 4:19 AM EDT 9:44 PM EDT
Astronomical Twilight 3:31 AM EDT 10:32 PM EDT
Moon 2:31 PM EDT (7/10) 1:14 AM EDT (7/10)
Length of Visible Light 16h 01m
Length of Day
14h 55m
Waxing Gibbous, 63% of the Moon is Illuminated
Jul 10
Waxing Gibbous
Jul 16
Full
Jul 24
Last Quarter
Jul 31
New
Aug 7
First Quarter

Hourly Weather History & Observations

Time (EDT) Temp. Heat Index Dew Point Humidity Pressure Visibility Wind Dir Wind Speed Gust Speed Precip Events Conditions
12:53 AM 71.1 °F - 66.9 °F 87% 30.07 in 10.0 mi Calm Calm - N/A   Clear
1:53 AM 70.0 °F - 66.9 °F 90% 30.06 in 10.0 mi Calm Calm - N/A   Clear
2:53 AM 69.1 °F - 66.9 °F 93% 30.06 in 10.0 mi Calm Calm - N/A   Clear
3:53 AM 69.1 °F - 66.0 °F 90% 30.06 in 10.0 mi Calm Calm - N/A   Clear
4:53 AM 68.0 °F - 66.0 °F 93% 30.06 in 10.0 mi Calm Calm - N/A   Clear
5:53 AM 66.9 °F - 64.9 °F 93% 30.07 in 8.0 mi Calm Calm - N/A   Clear
6:53 AM 68.0 °F - 66.0 °F 93% 30.09 in 7.0 mi Calm Calm - N/A   Clear
7:53 AM 73.0 °F - 68.0 °F 84% 30.09 in 9.0 mi Calm Calm - N/A   Clear
8:53 AM 78.1 °F - 66.9 °F 68% 30.08 in 10.0 mi Calm Calm - N/A   Clear
9:53 AM 82.0 °F 84.9 °F 68.0 °F 62% 30.07 in 10.0 mi Calm Calm - N/A   Clear
10:53 AM 84.9 °F 88.2 °F 68.0 °F 57% 30.06 in 10.0 mi Variable 4.6 mph - N/A   Clear
11:53 AM 88.0 °F 88.4 °F 62.1 °F 42% 30.05 in 10.0 mi WNW 4.6 mph - N/A   Partly Cloudy
12:53 PM 87.1 °F 87.8 °F 63.0 °F 44% 30.04 in 10.0 mi Variable 4.6 mph - N/A   Clear
1:53 PM 89.1 °F 90.0 °F 63.0 °F 42% 30.04 in 10.0 mi SW 3.5 mph - N/A   Mostly Cloudy
2:53 PM 91.0 °F 92.6 °F 64.0 °F 41% 30.02 in 10.0 mi WSW 4.6 mph - N/A   Mostly Cloudy
3:53 PM 90.0 °F 91.7 °F 64.9 °F 43% 30.01 in 10.0 mi SW 4.6 mph - N/A   Mostly Cloudy
4:53 PM 90.0 °F 91.7 °F 64.9 °F 43% 30.00 in 10.0 mi Variable 4.6 mph - N/A   Clear
5:53 PM 90.0 °F 91.3 °F 64.0 °F 42% 29.98 in 10.0 mi Variable 3.5 mph - N/A   Scattered Clouds
6:53 PM 89.1 °F 91.0 °F 64.9 °F 45% 29.98 in 10.0 mi Calm Calm - N/A   Scattered Clouds
7:53 PM 88.0 °F 90.3 °F 66.0 °F 48% 29.97 in 10.0 mi SSW 3.5 mph - N/A   Clear
8:53 PM 82.9 °F 85.0 °F 66.0 °F 56% 29.98 in 8.0 mi Calm Calm - N/A   Clear
9:53 PM 80.1 °F 82.7 °F 68.0 °F 67% 29.98 in 10.0 mi Calm Calm - N/A   Clear
10:53 PM 81.0 °F 83.8 °F 68.0 °F 65% 29.98 in 10.0 mi SW 3.5 mph - N/A   Clear
11:53 PM 80.1 °F 82.7 °F 68.0 °F 67% 29.98 in 10.0 mi Calm Calm - N/A   Mostly Cloudy